Regional Weather Roundup
Issued by NWS

Home | Current Version | Previous Version | Text Only | Print | Product List | Glossary Off
Versions: 1 2 3 4 5 6 7 8 9 10 11 12 13 14 15 16 17 18 19 20 21 22 23 24 25 26 27 28 29 30 31 32 33 34 35 36 37 38 39 40 41 42 43 44 45 46 47 48 49 50

000
ASUS43 KIND 041159
RWRIN

WEATHER ROUNDUP FOR INDIANA
NATIONAL WEATHER SERVICE INDIANAPOLIS IN
800 AM EDT MON MAY 04 2015

NOTE: "FAIR" INDICATES FEW OR NO CLOUDS BELOW 12,000 FEET WITH NO
SIGNIFICANT WEATHER AND/OR OBSTRUCTIONS TO VISIBILITY.

* - STATION DOES NOT REPORT WEATHER SUCH AS PRECIPITATION OR FOG.

+ - STATION NOT QUALITY CONTROLLED BY THE NATIONAL WEATHER SERVICE.
    USE DATA WITH CAUTION...ESPECIALLY DEWPOINT AND RELATIVE
    HUMIDITY OBSERVATIONS.

INZ001>003-010>013-019-020-041300-
NORTHWEST INDIANA

CITY           SKY/WX    TMP DP  RH WIND       PRES   REMARKS
GARY /AIRPORT/ LGT RAIN  64 N/A N/A SW9G21    30.00R

$$

LMZ046-743>745-041300-
SOUTHERN LAKE MICHIGAN

STATION/POSITION TIME  TEMP    WIND        PRES    WAVE
                       AIR SEA DIR/SP/G            HT
                 (UTC) (F)     (DEG/KT/KT) (MB)    (FT)
BURNS HARBOR     1100   62     200/ 15/ 18 1014.9R
MICHIGAN CITY    1100   63     160/ 16/ 22   N/A
5NW MICH CITY    1100   57 49  210/ 10/ 12   N/A     2

$$

INZ004-005-014>016-021>024-041300-
NORTH CENTRAL INDIANA

CITY           SKY/WX    TMP DP  RH WIND       PRES   REMARKS
ELKHART        MOSUNNY   64  45  48 SW12      30.00R
GOSHEN         CLOUDY    63  50  62 SW14      30.01R
6HR MIN TEMP:  62; 6HR MAX TEMP:  69; 6HR PCP: TRACE;

SOUTH BEND     LGT RAIN  63  49  60 S16       29.99R
6HR MIN TEMP:  63; 6HR MAX TEMP:  69; 6HR PCP: TRACE;


$$

INZ006>009-017-018-025>027-041300-
NORTHEAST INDIANA

CITY           SKY/WX    TMP DP  RH WIND       PRES   REMARKS
ANGOLA *+      MOSUNNY   63  48  59 SW10      30.03R
FORT WAYNE     CLOUDY    63  50  62 SW10      30.07R
6HR MIN TEMP:  59; 6HR MAX TEMP:  63;


$$

INZ028-029-035-036-043>045-051>053-041300-
WEST CENTRAL INDIANA

CITY           SKY/WX    TMP DP  RH WIND       PRES   REMARKS
GREENCASTLE +  CLOUDY    63  45  51 S5        30.10R
LAFAYETTE      CLOUDY    62  50  64 W8        30.08R
6HR MIN TEMP:  61; 6HR MAX TEMP:  65; 6HR PCP: TRACE;

TERRE HAUTE    CLOUDY    63  50  62 S10       30.10R
6HR MIN TEMP:  59; 6HR MAX TEMP:  63;


$$

INZ030>032-037>040-046>048-054>057-064-065-041300-
CENTRAL INDIANA

CITY           SKY/WX    TMP DP  RH WIND       PRES   REMARKS
FRANKFORT +    CLOUDY    60  51  71 S7        30.08R
6HR MIN TEMP:  58; 6HR MAX TEMP:  61;

GREENWOOD *+   MOSUNNY   59  48  67 S7        30.11R
INDIANAPOLIS   PTSUNNY   63  50  62 SW9       30.09R
6HR MIN TEMP:  58; 6HR MAX TEMP:  63;

-EAGLE CREEK   PTSUNNY   60  49  66 S6        30.09R
6HR MIN TEMP:  56; 6HR MAX TEMP:  62;

MT COMFORT *+  MOSUNNY   59  43  55 S9        30.11R
SHELBYVILLE    MOSUNNY   63  50  62 S12       30.11R
6HR MIN TEMP:  59; 6HR MAX TEMP:  63;


$$

INZ033-034-041-042-049-050-058-059-041300-
EAST CENTRAL INDIANA

CITY           SKY/WX    TMP DP  RH WIND       PRES   REMARKS
MUNCIE         MOSUNNY   63  49  60 SW8       30.09R
6HR MIN TEMP:  61; 6HR MAX TEMP:  65;


$$

INZ060-061-067>069-081>083-085>088-041300-
SOUTHWEST INDIANA

CITY           SKY/WX    TMP DP  RH WIND       PRES   REMARKS
EVANSVILLE     PTSUNNY   64  50  60 SW7       30.14R
6HR MIN TEMP:  59; 6HR MAX TEMP:  65;

HUNTINGBURG *+ CLOUDY    63  48  59 S8        30.15R
6HR MIN TEMP:  59; 6HR MAX TEMP:  63;


$$

INZ062-063-066-070>080-084-089>092-041300-
SOUTH CENTRAL AND SOUTHEAST INDIANA

CITY           SKY/WX    TMP DP  RH WIND       PRES   REMARKS
BLOOMINGTON    PTSUNNY   63  49  60 SW5       30.12R
6HR MIN TEMP:  56; 6HR MAX TEMP:  63;

MADISON *+     SUNNY     59  50  72 CALM      30.18R
SEYMOUR +      MOSUNNY   59  52  77 CALM      30.14R

$$



USA.gov is the U.S. government's official web portal to all federal, state and local government web resources and services.